| time (UTC) | temp C | wind direction | speed KPH | gust KPH | rain 1hr cm | rain 24hr cm | rain mn cm | humidity % | barometer mb |
| 20260506051053 | 20 | 226 | 0.0 | 0.0 | 0.00 | 0.00 | 0.00 | ||
| 20260506050554 | 20 | 226 | 0.0 | 0.0 | 0.00 | 0.00 | 0.00 | ||
| 20260506045052 | 20 | 239 | 0.0 | 0.0 | 0.00 | 0.00 | 0.00 | ||
| 20260506044550 | 20 | 302 | 1.6 | 0.0 | 0.00 | 0.00 | 0.00 | ||
| 20260506044051 | 20 | 326 | 6.4 | 3.2 | 0.00 | 0.00 | 0.00 | ||
| 20260506043551 | 21 | 253 | 0.0 | 0.0 | 0.00 | 0.00 | 0.00 | ||
| 20260506043049 | 21 | 253 | 0.0 | 0.0 | 0.00 | 0.00 | 0.00 | ||
| 20260506042639 | 22 | 253 | 0.0 | 0.0 | 0.00 | 0.00 | 0.00 | ||
| 20260506042549 | 21 | 253 | 0.0 | 0.0 | 0.00 | 0.00 | 0.00 | ||
| 20260506042050 | 22 | 253 | 0.0 | 0.0 | 0.00 | 0.00 | 0.00 | ||
| 20260506041548 | 21 | 253 | 0.0 | 0.0 | 0.00 | 0.00 | 0.00 | ||
| 20260506041048 | 21 | 253 | 0.0 | 0.0 | 0.00 | 0.00 | 0.00 | ||
| 20260506040549 | 22 | 253 | 0.0 | 0.0 | 0.00 | 0.00 | 0.00 | ||
| 20260506040046 | 22 | 253 | 0.0 | 0.0 | 0.00 | 0.00 | 0.00 | ||
| 20260506035547 | 22 | 253 | 0.0 | 0.0 | 0.00 | 0.00 | 0.00 | ||
| 20260506035047 | 22 | 253 | 0.0 | 0.0 | 0.00 | 0.00 | 0.00 | ||
| 20260506034545 | 22 | 253 | 0.0 | 0.0 | 0.00 | 0.00 | 0.00 | ||
| 20260506034045 | 23 | 253 | 0.0 | 0.0 | 0.00 | 0.00 | 0.00 | ||
| 20260506033546 | 23 | 253 | 0.0 | 0.0 | 0.00 | 0.00 | 0.00 | ||
| 20260506033043 | 23 | 253 | 0.0 | 0.0 | 0.00 | 0.00 | 0.00 | ||
| 20260506032544 | 23 | 253 | 0.0 | 0.0 | 0.00 | 0.00 | 0.00 | ||
| 20260506032044 | 23 | 253 | 0.0 | 0.0 | 0.00 | 0.00 | 0.00 | ||
| 20260506031542 | 24 | 253 | 0.0 | 0.0 | 0.00 | 0.00 | 0.00 | ||
| 20260506031042 | 24 | 253 | 0.0 | 0.0 | 0.00 | 0.00 | 0.00 | ||
| 20260506030543 | 25 | 253 | 0.0 | 0.0 | 0.00 | 0.00 | 0.00 | ||
| 20260506030040 | 25 | 253 | 0.0 | 0.0 | 0.00 | 0.00 | 0.00 | ||
| 20260506025541 | 25 | 253 | 0.0 | 0.0 | 0.00 | 0.00 | 0.00 | ||
| 20260506025041 | 25 | 253 | 0.0 | 0.0 | 0.00 | 0.00 | 0.00 | ||
| 20260506024538 | 25 | 283 | 3.2 | 3.2 | 0.00 | 0.00 | 0.00 | ||
| 20260506024038 | 25 | 263 | 4.8 | 4.8 | 0.00 | 0.00 | 0.00 | ||
| 20260506023539 | 25 | 273 | 6.4 | 8.0 | 0.00 | 0.00 | 0.00 | ||
| 20260506023036 | 25 | 287 | 6.4 | 6.4 | 0.00 | 0.00 | 0.00 | ||
| 20260506022537 | 26 | 281 | 8.0 | 4.8 | 0.00 | 0.00 | 0.00 | ||
| 20260506022037 | 26 | 291 | 8.0 | 4.8 | 0.00 | 0.00 | 0.00 | ||
| 20260506021535 | 26 | 288 | 4.8 | 1.6 | 0.00 | 0.00 | 0.00 | ||
| 20260506021204 | 26 | 259 | 0.0 | 1.6 | 0.00 | 0.00 | 0.00 | ||
| 20260506021035 | 26 | 259 | 0.0 | 1.6 | 0.00 | 0.00 | 0.00 | ||
| 20260506020536 | 26 | 297 | 3.2 | 1.6 | 0.00 | 0.00 | 0.00 | ||
| 20260506020033 | 26 | 301 | 6.4 | 6.4 | 0.00 | 0.00 | 0.00 | ||
| 20260506015534 | 26 | 298 | 4.8 | 4.8 | 0.00 | 0.00 | 0.00 | ||
| 20260506015034 | 26 | 291 | 4.8 | 6.4 | 0.00 | 0.00 | 0.00 | ||
| 20260506014532 | 27 | 293 | 6.4 | 4.8 | 0.00 | 0.00 | 0.00 | ||
| 20260506014032 | 27 | 290 | 6.4 | 4.8 | 0.00 | 0.00 | 0.00 | ||
| 20260506013533 | 27 | 294 | 8.0 | 6.4 | 0.00 | 0.00 | 0.00 | ||
| 20260506013030 | 27 | 284 | 8.0 | 9.7 | 0.00 | 0.00 | 0.00 | ||
| 20260506012531 | 28 | 281 | 9.7 | 8.0 | 0.00 | 0.00 | 0.00 | ||
| 20260506012031 | 28 | 283 | 11.3 | 9.7 | 0.00 | 0.00 | 0.00 | ||
| 20260506011529 | 28 | 280 | 8.0 | 11.3 | 0.00 | 0.00 | 0.00 | ||
| 20260506011029 | 29 | 277 | 8.0 | 6.4 | 0.00 | 0.00 | 0.00 | ||
| 20260506010529 | 29 | 304 | 9.7 | 6.4 | 0.00 | 0.00 | 0.00 | ||
| 20260506010027 | 30 | 290 | 12.9 | 11.3 | 0.00 | 0.00 | 0.00 | ||
| 20260506005527 | 30 | 285 | 8.0 | 12.9 | 0.00 | 0.00 | 0.00 | ||
| 20260506005028 | 30 | 266 | 9.7 | 14.5 | 0.00 | 0.00 | 0.00 | ||
| 20260506004525 | 30 | 293 | 11.3 | 6.4 | 0.00 | 0.00 | 0.00 | ||
| 20260506004026 | 31 | 243 | 9.7 | 12.9 | 0.00 | 0.00 | 0.00 | ||
| 20260506003526 | 31 | 271 | 11.3 | 9.7 | 0.00 | 0.00 | 0.00 | ||
| 20260506003023 | 31 | 321 | 4.8 | 3.2 | 0.00 | 0.00 | 0.00 | ||
| 20260506002524 | 31 | 238 | 1.6 | 3.2 | 0.00 | 0.00 | 0.00 | ||
| 20260506002024 | 32 | 231 | 1.6 | 0.0 | 0.00 | 0.00 | 0.00 | ||
| 20260506001522 | 32 | 211 | 4.8 | 4.8 | 0.00 | 0.00 | 0.00 | ||
| 20260506001022 | 32 | 246 | 3.2 | 4.8 | 0.00 | 0.00 | 0.00 | ||
| 20260506000522 | 31 | 238 | 4.8 | 4.8 | 0.00 | 0.00 | 0.00 | ||
| 20260506000020 | 31 | 240 | 4.8 | 3.2 | 0.00 | 0.00 | 0.00 | ||
| 20260505235520 | 31 | 231 | 6.4 | 11.3 | 0.00 | 0.00 | 0.00 | ||
| 20260505235021 | 31 | 229 | 6.4 | 6.4 | 0.00 | 0.00 | 0.00 | ||
| 20260505234518 | 32 | 228 | 8.0 | 4.8 | 0.00 | 0.00 | 0.00 | ||
| 20260505234018 | 32 | 228 | 6.4 | 9.7 | 0.00 | 0.00 | 0.00 | ||
| 20260505233519 | 32 | 215 | 9.7 | 12.9 | 0.00 | 0.00 | 0.00 | ||
| 20260505233016 | 32 | 224 | 6.4 | 4.8 | 0.00 | 0.00 | 0.00 | ||
| 20260505232516 | 32 | 249 | 11.3 | 9.7 | 0.00 | 0.00 | 0.00 | ||
| 20260505232017 | 32 | 229 | 12.9 | 12.9 | 0.00 | 0.00 | 0.00 | ||
| 20260505231514 | 32 | 238 | 8.0 | 4.8 | 0.00 | 0.00 | 0.00 | ||
| 20260505231100 | 33 | 214 | 11.3 | 6.4 | 0.00 | 0.00 | 0.00 | ||
| 20260505231014 | 33 | 214 | 11.3 | 6.4 | 0.00 | 0.00 | 0.00 | ||
| 20260505230515 | 33 | 229 | 11.3 | 12.9 | 0.00 | 0.00 | 0.00 | ||
| 20260505230012 | 33 | 226 | 11.3 | 9.7 | 0.00 | 0.00 | 0.00 | ||
| 20260505225513 | 33 | 255 | 11.3 | 6.4 | 0.00 | 0.00 | 0.00 | ||
| 20260505225013 | 33 | 229 | 11.3 | 9.7 | 0.00 | 0.00 | 0.00 | ||
| 20260505224510 | 34 | 218 | 12.9 | 14.5 | 0.00 | 0.00 | 0.00 | ||
| 20260505224011 | 34 | 205 | 6.4 | 6.4 | 0.00 | 0.00 | 0.00 | ||
| 20260505223511 | 34 | 243 | 11.3 | 14.5 | 0.00 | 0.00 | 0.00 | ||
| 20260505223008 | 33 | 252 | 9.7 | 14.5 | 0.00 | 0.00 | 0.00 | ||
| 20260505222509 | 34 | 231 | 12.9 | 11.3 | 0.00 | 0.00 | 0.00 | ||
| 20260505222009 | 33 | 235 | 12.9 | 9.7 | 0.00 | 0.00 | 0.00 | ||
| 20260505221505 | 33 | 221 | 11.3 | 9.7 | 0.00 | 0.00 | 0.00 | ||
| 20260505221005 | 33 | 246 | 12.9 | 12.9 | 0.00 | 0.00 | 0.00 | ||
| 20260505220505 | 34 | 214 | 12.9 | 6.4 | 0.00 | 0.00 | 0.00 | ||
| 20260505220003 | 34 | 232 | 9.7 | 12.9 | 0.00 | 0.00 | 0.00 | ||
| 20260505215503 | 33 | 242 | 14.5 | 11.3 | 0.00 | 0.00 | 0.00 | ||
| 20260505215003 | 34 | 242 | 11.3 | 9.7 | 0.00 | 0.00 | 0.00 | ||
| 20260505214501 | 34 | 222 | 6.4 | 8.0 | 0.00 | 0.00 | 0.00 | ||
| 20260505214001 | 33 | 203 | 8.0 | 6.4 | 0.00 | 0.00 | 0.00 | ||
| 20260505213501 | 33 | 257 | 12.9 | 11.3 | 0.00 | 0.00 | 0.00 | ||
| 20260505213409 | 33 | 221 | 14.5 | 16.1 | 0.00 | 0.00 | 0.00 | ||
| 20260505212958 | 33 | 221 | 14.5 | 16.1 | 0.00 | 0.00 | 0.00 | ||
| 20260505212458 | 34 | 252 | 14.5 | 12.9 | 0.00 | 0.00 | 0.00 | ||
| 20260505211958 | 34 | 242 | 14.5 | 17.7 | 0.00 | 0.00 | 0.00 | ||
| 20260505211456 | 34 | 285 | 12.9 | 9.7 | 0.00 | 0.00 | 0.00 | ||
| 20260505210956 | 33 | 269 | 9.7 | 6.4 | 0.00 | 0.00 | 0.00 | ||
| 20260505210456 | 34 | 277 | 16.1 | 16.1 | 0.00 | 0.00 | 0.00 | ||
| 20260505205954 | 35 | 295 | 12.9 | 12.9 | 0.00 | 0.00 | 0.00 | ||
| 20260505205454 | 34 | 284 | 16.1 | 14.5 | 0.00 | 0.00 | 0.00 | ||
| 20260505204954 | 34 | 215 | 14.5 | 16.1 | 0.00 | 0.00 | 0.00 | ||
| 20260505204452 | 35 | 269 | 17.7 | 12.9 | 0.00 | 0.00 | 0.00 | ||
| 20260505203952 | 35 | 293 | 11.3 | 14.5 | 0.00 | 0.00 | 0.00 | ||
| 20260505203452 | 35 | 239 | 6.4 | 14.5 | 0.00 | 0.00 | 0.00 | ||
| 20260505202950 | 35 | 281 | 8.0 | 17.7 | 0.00 | 0.00 | 0.00 | ||
| 20260505202450 | 34 | 257 | 9.7 | 11.3 | 0.00 | 0.00 | 0.00 | ||
| 20260505201950 | 35 | 264 | 9.7 | 17.7 | 0.00 | 0.00 | 0.00 | ||
| 20260505201447 | 34 | 300 | 9.7 | 8.0 | 0.00 | 0.00 | 0.00 | ||
| 20260505200948 | 34 | 252 | 9.7 | 16.1 | 0.00 | 0.00 | 0.00 | ||
| 20260505200448 | 33 | 238 | 12.9 | 16.1 | 0.00 | 0.00 | 0.00 | ||
| 20260505195946 | 34 | 264 | 12.9 | 12.9 | 0.00 | 0.00 | 0.00 | ||
| 20260505195446 | 35 | 246 | 8.0 | 9.7 | 0.00 | 0.00 | 0.00 | ||
| 20260505194946 | 34 | 253 | 11.3 | 12.9 | 0.00 | 0.00 | 0.00 | ||
| 20260505194442 | 34 | 238 | 14.5 | 11.3 | 0.00 | 0.00 | 0.00 | ||
| 20260505193942 | 35 | 233 | 11.3 | 11.3 | 0.00 | 0.00 | 0.00 | ||
| 20260505193442 | 34 | 288 | 11.3 | 6.4 | 0.00 | 0.00 | 0.00 | ||
| 20260505193313 | 33 | 260 | 11.3 | 11.3 | 0.00 | 0.00 | 0.00 | ||
| 20260505192940 | 33 | 273 | 9.7 | 3.2 | 0.00 | 0.00 | 0.00 | ||
| 20260505192440 | 33 | 260 | 11.3 | 11.3 | 0.00 | 0.00 | 0.00 | ||
| 20260505191940 | 33 | 270 | 11.3 | 11.3 | 0.00 | 0.00 | 0.00 | ||
| 20260505191438 | 33 | 242 | 8.0 | 12.9 | 0.00 | 0.00 | 0.00 | ||
| 20260505190938 | 33 | 260 | 11.3 | 11.3 | 0.00 | 0.00 | 0.00 | ||
| 20260505190438 | 33 | 255 | 16.1 | 9.7 | 0.00 | 0.00 | 0.00 | ||
| 20260505185936 | 33 | 284 | 9.7 | 19.3 | 0.00 | 0.00 | 0.00 | ||
| 20260505185436 | 33 | 263 | 8.0 | 16.1 | 0.00 | 0.00 | 0.00 | ||
| 20260505184936 | 33 | 250 | 14.5 | 12.9 | 0.00 | 0.00 | 0.00 | ||
| 20260505184434 | 32 | 246 | 14.5 | 14.5 | 0.00 | 0.00 | 0.00 | ||
| 20260505183934 | 32 | 232 | 12.9 | 6.4 | 0.00 | 0.00 | 0.00 | ||
| 20260505183434 | 33 | 284 | 14.5 | 12.9 | 0.00 | 0.00 | 0.00 | ||
| 20260505182932 | 32 | 264 | 11.3 | 9.7 | 0.00 | 0.00 | 0.00 | ||
| 20260505182432 | 32 | 290 | 14.5 | 8.0 | 0.00 | 0.00 | 0.00 | ||
| 20260505181933 | 32 | 270 | 16.1 | 11.3 | 0.00 | 0.00 | 0.00 | ||
| 20260505181430 | 32 | 253 | 14.5 | 9.7 | 0.00 | 0.00 | 0.00 | ||
| 20260505180930 | 32 | 242 | 12.9 | 12.9 | 0.00 | 0.00 | 0.00 | ||
| 20260505180431 | 32 | 239 | 11.3 | 12.9 | 0.00 | 0.00 | 0.00 | ||
| 20260505175928 | 32 | 249 | 14.5 | 12.9 | 0.00 | 0.00 | 0.00 | ||
| 20260505175429 | 32 | 285 | 17.7 | 12.9 | 0.00 | 0.00 | 0.00 | ||
| 20260505174929 | 32 | 271 | 9.7 | 8.0 | 0.00 | 0.00 | 0.00 | ||
| 20260505174426 | 32 | 224 | 11.3 | 16.1 | 0.00 | 0.00 | 0.00 | ||
| 20260505173926 | 32 | 248 | 16.1 | 11.3 | 0.00 | 0.00 | 0.00 | ||
| 20260505173427 | 32 | 281 | 11.3 | 12.9 | 0.00 | 0.00 | 0.00 | ||
| 20260505172924 | 32 | 243 | 11.3 | 9.7 | 0.00 | 0.00 | 0.00 | ||
| 20260505172425 | 32 | 245 | 4.8 | 4.8 | 0.00 | 0.00 | 0.00 | ||
| 20260505171925 | 31 | 203 | 9.7 | 11.3 | 0.00 | 0.00 | 0.00 | ||
| 20260505171422 | 31 | 165 | 8.0 | 6.4 | 0.00 | 0.00 | 0.00 | ||
| 20260505170923 | 31 | 191 | 9.7 | 6.4 | 0.00 | 0.00 | 0.00 | ||
| 20260505170423 | 30 | 232 | 9.7 | 8.0 | 0.00 | 0.00 | 0.00 | ||
| 20260505165920 | 30 | 253 | 8.0 | 8.0 | 0.00 | 0.00 | 0.00 | ||
| 20260505165534 | 29 | 236 | 12.9 | 11.3 | 0.00 | 0.00 | 0.00 | ||
| 20260505165421 | 29 | 236 | 12.9 | 11.3 | 0.00 | 0.00 | 0.00 | ||
| 20260505164921 | 28 | 211 | 12.9 | 9.7 | 0.00 | 0.00 | 0.00 | ||
| 20260505164519 | 28 | 203 | 16.1 | 16.1 | 0.00 | 0.00 | 0.00 | ||
| 20260505164419 | 28 | 203 | 16.1 | 16.1 | 0.00 | 0.00 | 0.00 | ||
| 20260505163919 | 28 | 222 | 12.9 | 17.7 | 0.00 | 0.00 | 0.00 | ||
| 20260505163420 | 28 | 232 | 19.3 | 14.5 | 0.00 | 0.00 | 0.00 | ||
| 20260505162917 | 28 | 205 | 11.3 | 19.3 | 0.00 | 0.00 | 0.00 | ||
| 20260505162417 | 27 | 197 | 14.5 | 9.7 | 0.00 | 0.00 | 0.00 | ||
| 20260505161918 | 27 | 197 | 12.9 | 12.9 | 0.00 | 0.00 | 0.00 | ||
| 20260505161415 | 26 | 225 | 17.7 | 16.1 | 0.00 | 0.00 | 0.00 | ||
| 20260505160915 | 26 | 194 | 17.7 | 16.1 | 0.00 | 0.00 | 0.00 | ||
| 20260505160415 | 26 | 218 | 17.7 | 14.5 | 0.00 | 0.00 | 0.00 | ||
| 20260505152908 | 26 | 198 | 14.5 | 12.9 | 0.00 | 0.00 | 0.00 | ||
| 20260505152408 | 26 | 180 | 11.3 | 9.7 | 0.00 | 0.00 | 0.00 | ||
| 20260505151909 | 26 | 198 | 9.7 | 14.5 | 0.00 | 0.00 | 0.00 | ||
| 20260505151406 | 25 | 195 | 12.9 | 12.9 | 0.00 | 0.00 | 0.00 | ||
| 20260505150407 | 25 | 172 | 12.9 | 12.9 | 0.00 | 0.00 | 0.00 | ||
| 20260505140358 | 22 | 193 | 16.1 | 22.5 | 0.00 | 0.00 | 0.00 | ||
| 20260505124847 | 20 | 225 | 11.3 | 11.3 | 0.00 | 0.00 | 0.00 | ||
| 20260505124421 | 20 | 191 | 11.3 | 14.5 | 0.00 | 0.00 | 0.00 | ||
| 20260505124345 | 20 | 191 | 11.3 | 14.5 | 0.00 | 0.00 | 0.00 | ||
| 20260505123845 | 20 | 191 | 12.9 | 20.9 | 0.00 | 0.00 | 0.00 | ||
| 20260505123346 | 20 | 203 | 14.5 | 14.5 | 0.00 | 0.00 | 0.00 | ||
| 20260505122843 | 20 | 210 | 12.9 | 9.7 | 0.00 | 0.00 | 0.00 | ||
| 20260505122344 | 20 | 197 | 12.9 | 14.5 | 0.00 | 0.00 | 0.00 | ||
| 20260505121844 | 20 | 200 | 17.7 | 17.7 | 0.00 | 0.00 | 0.00 | ||
| 20260505121340 | 20 | 208 | 17.7 | 12.9 | 0.00 | 0.00 | 0.00 | ||
| 20260505120923 | 20 | 188 | 19.3 | 24.1 | 0.00 | 0.00 | 0.00 | ||
| 20260505120840 | 20 | 188 | 19.3 | 24.1 | 0.00 | 0.00 | 0.00 | ||
| 20260505120341 | 19 | 204 | 17.7 | 16.1 | 0.00 | 0.00 | 0.00 | ||
| 20260505115847 | 20 | 188 | 17.7 | 14.5 | 0.00 | 0.00 | 0.00 | ||
| 20260505115838 | 20 | 188 | 17.7 | 14.5 | 0.00 | 0.00 | 0.00 | ||
| 20260505115434 | 20 | 183 | 19.3 | 14.5 | 0.00 | 0.00 | 0.00 | ||
| 20260505115339 | 20 | 183 | 19.3 | 14.5 | 0.00 | 0.00 | 0.00 | ||
| 20260505114839 | 19 | 224 | 16.1 | 20.9 | 0.00 | 0.00 | 0.00 | ||
| 20260505114336 | 19 | 188 | 16.1 | 16.1 | 0.00 | 0.00 | 0.00 | ||
| 20260505113836 | 19 | 188 | 12.9 | 17.7 | 0.00 | 0.00 | 0.00 | ||
| 20260505113337 | 19 | 201 | 14.5 | 12.9 | 0.00 | 0.00 | 0.00 | ||
| 20260505112834 | 19 | 205 | 12.9 | 17.7 | 0.00 | 0.00 | 0.00 | ||
| 20260505112335 | 19 | 177 | 11.3 | 12.9 | 0.00 | 0.00 | 0.00 | ||
| 20260505111835 | 19 | 233 | 11.3 | 12.9 | 0.00 | 0.00 | 0.00 | ||
| 20260505111333 | 19 | 188 | 9.7 | 11.3 | 0.00 | 0.00 | 0.00 | ||
| 20260505110833 | 20 | 245 | 9.7 | 11.3 | 0.00 | 0.00 | 0.00 | ||
| 20260505110408 | 20 | 194 | 12.9 | 14.5 | 0.00 | 0.00 | 0.00 | ||
| 20260505110333 | 20 | 194 | 12.9 | 14.5 | 0.00 | 0.00 | 0.00 | ||
| 20260505101828 | 20 | 194 | 14.5 | 12.9 | 0.00 | 0.00 | 0.00 | ||
| 20260505101414 | 20 | 191 | 11.3 | 14.5 | 0.00 | 0.00 | 0.00 | ||
| 20260505101325 | 20 | 191 | 11.3 | 14.5 | 0.00 | 0.00 | 0.00 | ||
| 20260505100826 | 20 | 170 | 14.5 | 14.5 | 0.00 | 0.00 | 0.00 | ||
| 20260505100326 | 20 | 172 | 14.5 | 11.3 | 0.00 | 0.00 | 0.00 | ||
| 20260505095824 | 20 | 191 | 16.1 | 14.5 | 0.00 | 0.00 | 0.00 | ||
| 20260505095324 | 20 | 194 | 16.1 | 17.7 | 0.00 | 0.00 | 0.00 | ||
| 20260505094825 | 20 | 203 | 14.5 | 16.1 | 0.00 | 0.00 | 0.00 | ||
| 20260505094401 | 20 | 187 | 17.7 | 19.3 | 0.00 | 0.00 | 0.00 | ||
| 20260505094323 | 20 | 187 | 17.7 | 19.3 | 0.00 | 0.00 | 0.00 | ||
| 20260505093324 | 20 | 195 | 14.5 | 12.9 | 0.00 | 0.00 | 0.00 | ||
| 20260505092821 | 20 | 176 | 12.9 | 14.5 | 0.00 | 0.00 | 0.00 | ||
| 20260505092322 | 20 | 184 | 16.1 | 16.1 | 0.00 | 0.00 | 0.00 | ||
| 20260505091822 | 21 | 204 | 16.1 | 12.9 | 0.00 | 0.00 | 0.00 | ||
| 20260505091319 | 20 | 205 | 14.5 | 9.7 | 0.00 | 0.00 | 0.00 | ||
| 20260505090820 | 21 | 197 | 17.7 | 20.9 | 0.00 | 0.00 | 0.00 | ||
| 20260505090320 | 20 | 194 | 14.5 | 17.7 | 0.00 | 0.00 | 0.00 | ||
| 20260505085817 | 20 | 198 | 14.5 | 14.5 | 0.00 | 0.00 | 0.00 | ||
| 20260505085318 | 20 | 201 | 19.3 | 12.9 | 0.00 | 0.00 | 0.00 | ||
| 20260505084818 | 20 | 219 | 12.9 | 12.9 | 0.00 | 0.00 | 0.00 | ||
| 20260505084316 | 21 | 205 | 12.9 | 11.3 | 0.00 | 0.00 | 0.00 | ||
| 20260505083816 | 21 | 176 | 19.3 | 19.3 | 0.00 | 0.00 | 0.00 | ||
| 20260505083317 | 21 | 211 | 17.7 | 16.1 | 0.00 | 0.00 | 0.00 | ||
| 20260505082814 | 21 | 207 | 14.5 | 16.1 | 0.00 | 0.00 | 0.00 | ||
| 20260505082350 | 21 | 194 | 14.5 | 16.1 | 0.00 | 0.00 | 0.00 | ||
| 20260505082316 | 21 | 194 | 14.5 | 16.1 | 0.00 | 0.00 | 0.00 | ||
| 20260505081857 | 21 | 170 | 16.1 | 14.5 | 0.00 | 0.00 | 0.00 | ||
| 20260505081815 | 21 | 170 | 16.1 | 14.5 | 0.00 | 0.00 | 0.00 | ||
| 20260505081313 | 21 | 173 | 19.3 | 19.3 | 0.00 | 0.00 | 0.00 | ||
| 20260505080813 | 21 | 207 | 16.1 | 9.7 | 0.00 | 0.00 | 0.00 | ||
| 20260505080314 | 21 | 198 | 20.9 | 16.1 | 0.00 | 0.00 | 0.00 | ||
| 20260505075811 | 21 | 207 | 16.1 | 16.1 | 0.00 | 0.00 | 0.00 | ||
| 20260505075312 | 21 | 186 | 19.3 | 19.3 | 0.00 | 0.00 | 0.00 | ||
| 20260505074812 | 21 | 193 | 16.1 | 20.9 | 0.00 | 0.00 | 0.00 | ||
| 20260505074310 | 21 | 204 | 17.7 | 27.4 | 0.00 | 0.00 | 0.00 | ||
| 20260505073810 | 21 | 170 | 20.9 | 14.5 | 0.00 | 0.00 | 0.00 | ||
| 20260505073311 | 21 | 183 | 25.7 | 22.5 | 0.00 | 0.00 | 0.00 | ||
| 20260505072808 | 21 | 183 | 20.9 | 22.5 | 0.00 | 0.00 | 0.00 | ||
| 20260505072309 | 21 | 195 | 22.5 | 19.3 | 0.00 | 0.00 | 0.00 | ||
| 20260505071809 | 21 | 158 | 24.1 | 17.7 | 0.00 | 0.00 | 0.00 | ||
| 20260505071307 | 21 | 184 | 19.3 | 17.7 | 0.00 | 0.00 | 0.00 | ||
| 20260505070807 | 21 | 193 | 16.1 | 19.3 | 0.00 | 0.00 | 0.00 | ||
| 20260505070307 | 21 | 176 | 19.3 | 20.9 | 0.00 | 0.00 | 0.00 | ||
| 20260505065805 | 21 | 193 | 20.9 | 20.9 | 0.00 | 0.00 | 0.00 | ||
| 20260505065305 | 21 | 177 | 16.1 | 11.3 | 0.00 | 0.00 | 0.00 | ||
| 20260505064806 | 21 | 184 | 20.9 | 22.5 | 0.00 | 0.00 | 0.00 | ||
| 20260505064303 | 21 | 203 | 17.7 | 12.9 | 0.00 | 0.00 | 0.00 | ||
| 20260505063804 | 21 | 204 | 17.7 | 14.5 | 0.00 | 0.00 | 0.00 | ||
| 20260505063304 | 21 | 167 | 17.7 | 17.7 | 0.00 | 0.00 | 0.00 | ||
| 20260505062801 | 21 | 169 | 20.9 | 17.7 | 0.00 | 0.00 | 0.00 | ||
| 20260505062301 | 22 | 169 | 20.9 | 22.5 | 0.00 | 0.00 | 0.00 | ||
| 20260505061801 | 22 | 190 | 17.7 | 16.1 | 0.00 | 0.00 | 0.00 | ||
| 20260505061259 | 22 | 163 | 17.7 | 17.7 | 0.00 | 0.00 | 0.00 | ||
| 20260505060759 | 22 | 177 | 19.3 | 17.7 | 0.00 | 0.00 | 0.00 |